Location: El Álamo
(40.2307°N, 3.9945°W)
Time: 04:42:56
(UTC+00:00)

Cosmos 220 Rocket - Pass Details

Date: 19 May 2025
Orbit: 546 x 580 km, 74.0° (Epoch: 23 June)

Event Time Altitude Azimuth Distance (km) Brightness Sun altitude
Exits shadow 21:58:25 56° 68° (ENE) 662 4.0 -22.2°
Drops below altitude 10° 22:01:55 10° 26° (NNE) 1,829 6.8 -22.6°
Sets 22:04:07 0° 23° (NNE) 2,724 7.8 -22.8°
